Change the Weather History Date:

Monday, November 19, 2012

  Actual Average Record
Temperature  
Mean Temperature 33 °F -  
Max Temperature 34 °F 32 °F 51 °F (2003)
Min Temperature 32 °F 24 °F 14 °F (1998)
Degree Days  
Heating Degree Days 32    
Moisture  
Dew Point 31 °F    
Average Humidity 91    
Maximum Humidity 100    
Minimum Humidity 83    
Precipitation  
Precipitation 0.00 in 0.08 in - ()
Sea Level Pressure  
Sea Level Pressure 29.95 in    
Wind  
Wind Speed 19 mph ()    
Max Wind Speed 32 mph    
Max Gust Speed -    
Visibility 0.0 miles    
Events Fog    
Averages and records for this station are not official NWS values.
T = Trace of Precipitation, MM = Missing Value Source: Averaged Metar Reports

Daily Weather History Graph

Daily Weather History Graph

Search for Another Location

Airport or City:

Trip Planner

Search our weather history database for the weather conditions in past years. The results will help you decide how hot, cold, wet, or windy it might be!

Date:

Astronomy

Nov. 19, 2012 Rise Set
Actual Time 7:18 AM CET 4:46 PM CET
Civil Twilight 6:46 AM CET 5:18 PM CET
Nautical Twilight 6:11 AM CET 5:53 PM CET
Astronomical Twilight 5:36 AM CET 6:28 PM CET
Moon 12:07 PM CET (11/19) 11:00 PM CET (11/19)
Length of Visible Light 10h 31m
Length of Day
9h 28m
Waxing Crescent, 38% of the Moon is Illuminated
Nov 19
Waxing Crescent
Nov 20
First Quarter
Nov 28
Full
Dec 6
Last Quarter
Dec 13
New

Hourly Weather History & Observations

Time (CET) Temp. Windchill Dew Point Humidity Pressure Visibility Wind Dir Wind Speed Gust Speed Precip Events Conditions
12:55 AM 33.8 °F 22.8 °F 33.8 °F 100% 29.95 in 0.0 mi WSW 18.4 mph - N/A Fog Fog
1:00 AM 35 °F - 34 °F 94%  in 0 mi WSW 18.4 mph - - Fog Heavy Fog
1:55 AM 33.8 °F 24.3 °F 33.8 °F 100% 29.95 in 0.0 mi WSW 13.8 mph - N/A Fog Fog
2:55 AM 33.8 °F 24.3 °F 33.8 °F 100% 29.95 in 0.0 mi WSW 13.8 mph - N/A Fog Fog
3:55 AM 33.8 °F 22.8 °F 32.0 °F 93% 29.95 in 0.0 mi WSW 18.4 mph - N/A Fog Fog
4:55 AM 33.8 °F 22.2 °F 32.0 °F 93% 29.92 in 0.0 mi WSW 20.7 mph - N/A Fog Fog
5:55 AM 33.8 °F 21.9 °F 32.0 °F 93% 29.95 in 0.0 mi WSW 21.9 mph - N/A Fog Fog
6:55 AM 33.8 °F 21.6 °F 32.0 °F 93% 29.92 in 0.0 mi WSW 23.0 mph - N/A Fog Fog
7:00 AM 33 °F - 32 °F 93%  in 0 mi WSW 23.0 mph - - Fog Heavy Fog
7:55 AM 33.8 °F 21.9 °F 32.0 °F 93% 29.95 in 0.0 mi West 21.9 mph - N/A Fog Fog
8:55 AM 33.8 °F 21.6 °F 32.0 °F 93% 29.95 in 0.0 mi WSW 23.0 mph - N/A Fog Fog
9:55 AM 33.8 °F 22.8 °F 32.0 °F 93% 29.98 in 0.0 mi ENE 18.4 mph - N/A Fog Fog
10:55 AM 33.8 °F 23.2 °F 32.0 °F 93% 29.95 in 0.0 mi East 17.3 mph - N/A Fog Fog
11:55 AM 33.8 °F 24.3 °F 30.2 °F 87% 29.95 in 0.0 mi ENE 13.8 mph - N/A Fog Fog
12:55 PM 33.8 °F 23.5 °F 32.0 °F 93% 29.95 in 0.0 mi ENE 16.1 mph - N/A Fog Fog
1:00 PM 34 °F - 31 °F 85%  in 0 mi ENE 16.1 mph - - Fog Heavy Fog
1:55 PM 33.8 °F 20.3 °F 32.0 °F 93% 29.95 in 0.0 mi ENE 28.8 mph - N/A Fog Fog
2:55 PM 33.8 °F 20.3 °F 30.2 °F 87% 29.92 in 0.0 mi ENE 28.8 mph - N/A Fog Fog
3:55 PM 33.8 °F 19.9 °F 32.0 °F 93% 29.92 in 0.0 mi NE 31.1 mph - N/A Fog Fog
5:55 PM 33.8 °F 19.6 °F 30.2 °F 87% 29.95 in 0.0 mi NE 32.2 mph - N/A Fog Fog
6:55 PM 33.8 °F 20.3 °F 30.2 °F 87% 29.95 in 0.0 mi ENE 28.8 mph - N/A Fog Fog
7:00 PM 33 °F - 30 °F 83%  in 0 mi ENE 28.8 mph - - Fog Heavy Fog
7:55 PM 32.0 °F 17.4 °F 30.2 °F 93% 29.95 in 0.0 mi ENE 31.1 mph - N/A Fog Fog
8:55 PM 32.0 °F 17.9 °F 28.4 °F 87% 29.95 in 0.0 mi ENE 28.8 mph - N/A Fog Fog
9:55 PM 32.0 °F 17.6 °F 28.4 °F 87% 29.98 in 0.0 mi ENE 29.9 mph - N/A Fog Fog
10:55 PM 32.0 °F 17.2 °F 28.4 °F 87% 29.98 in 0.0 mi ENE 32.2 mph - N/A Fog Fog
11:55 PM 32.0 °F 20.5 °F 28.4 °F 87% 29.98 in 0.0 mi East 18.4 mph - N/A Fog Fog